Home   Weather   Peoria   Past weeks

Flag for USA Past Weather in Peoria, Illinois, USA — Yesterday and Last 2 Weeks

Now
21 °F

Overcast.


Feels Like: 16 °F
Forecast: 17 / 27 °F
Wind: 3 mph from Northwest

Location: Greater Peoria Regional Airport

Current Time: Dec 10, 2016 at 3:11:21 am

Latest Report: Dec 10, 2016 at 1:54 am


Visibility: 10 mi

Pressure: 30.58 "Hg

Humidity: 74%

Dew Point: 14 °F

Location of PeoriaLocation

Past Weather in Peoria — Graph

°F

Peoria Temperature Yesterday

Maximum temperature yesterday: 26 °F (at 10:54 am)
Minimum temperature yesterday: 21 °F (at 5:54 am)
Average temperature yesterday: 23 °F

High & Low Weather Summary for the Past Weeks

 TemperatureHumidityPressure
High58 °F (Nov 29, 1:54 pm)100% (Nov 26, 5:54 am)30.64 "Hg (Nov 26, 5:54 am)
Low18 °F (Dec 8, 7:54 am)57% (Dec 7, 11:54 am)29.20 "Hg (Nov 28, 4:54 pm)
Average35 °F81%30.06 "Hg
* Reported Nov 25 1:54 am — Dec 10 1:54 am, Peoria, Weather by CustomWeather, © 2016

Note: Actual official high and low records may vary slightly from our data, if they occured in-between our weather recording intervals... More about our weather records

Advertising

Peoria Weather History for the Previous 24 Hours

Scroll right to see more
 ConditionsComfort  
Time TempWeatherWind HumidityBarometerVisibility
1:54 am
Sat, Dec 10
21 °FOvercast.3 mph74%30.58 "Hg10 mi
12:54 am21 °FOvercast.3 mph74%30.58 "Hg10 mi
11:54 pm
Fri, Dec 9
22 °FOvercast.7 mph72%30.59 "Hg10 mi
10:54 pm22 °FOvercast.6 mph72%30.59 "Hg10 mi
9:54 pm22 °FMostly cloudy.7 mph68%30.59 "Hg10 mi
8:54 pm22 °FOvercast.6 mph68%30.59 "Hg10 mi
7:54 pm22 °FOvercast.6 mph66%30.59 "Hg10 mi
6:54 pm23 °FOvercast.No wind63%30.59 "Hg10 mi
5:54 pm23 °FOvercast.6 mph63%30.60 "Hg10 mi
4:54 pm24 °FOvercast.5 mph60%30.59 "Hg10 mi
3:54 pm24 °FPartly sunny.6 mph60%30.59 "Hg10 mi
2:54 pm25 °FPartly sunny.6 mph58%30.58 "Hg10 mi
1:54 pm26 °FOvercast.8 mph57%30.58 "Hg10 mi
12:54 pm25 °FPartly sunny.7 mph58%30.59 "Hg10 mi
11:54 am24 °FOvercast.8 mph60%30.62 "Hg10 mi
10:54 am26 °FScattered clouds.12 mph60%30.63 "Hg10 mi
9:54 am24 °FScattered clouds.8 mph62%30.64 "Hg10 mi
8:54 am22 °FScattered clouds.10 mph68%30.63 "Hg10 mi
7:54 am21 °FOvercast.7 mph74%30.62 "Hg10 mi
6:54 am21 °FOvercast.9 mph71%30.61 "Hg10 mi
5:54 am21 °FOvercast.7 mph71%30.60 "Hg10 mi
4:54 am22 °FOvercast.6 mph68%30.58 "Hg10 mi
3:54 am22 °FOvercast.9 mph62%30.57 "Hg10 mi
Weather by CustomWeather, © 2016

See weather overviewHow to use our weather pages